Location: *
(35.2348°S, 91.3916°E)
Time: 22:47:22
(UTC+00:00)

Meteor 2-20 Rocket - Pass Details

Date: 23 October 2019
Orbit: 941 x 958 km, 82.5° (Epoch: 20 November)

Event Time Altitude Azimuth Distance (km) Brightness Sun altitude
Rises 13:51:21 0° 189° (S) 3,653 8.1 -18.9°
Reaches altitude 10° 13:53:52 10° 189° (S) 2,699 7.3 -19.3°
Maximum altitude 14:00:03 80° 275° (W) 970 4.5 -20.4°
Enters shadow 14:04:56 17° 360° (N) 2,213 6.1 -21.2°
